2024-159D

Last updated on Thu Sep 19 2024 00:02:04 GMT+0000 (Coordinated Universal Time)

1 61014U 24159D 24262.58616248 .00017291 00000+0 12844-2 0 9999 2 61014 50.0054 179.3248 0008578 310.5180 49.5019 15.03023647 1952
UTC large
Height (km)
Speed (km/s)
/
Latitude / Longitude
Inclination (degrees)
Orbital Period (minutes)
Azimuth
Elevation
Range (km)
Doppler Factor

Next 0 passes for location: London (51.5072 / 0.1276)

Sorry there are no passes over London.